Change the Weather History Date:

Saturday, November 29, 2014

  Actual Average Record
Temperature  
Mean Temperature 65 °F 71 °F  
Max Temperature 76 °F 78 °F 89 °F (1948)
Min Temperature 53 °F 63 °F 40 °F (1966)
Degree Days  
Heating Degree Days 0 1  
Month to date heating degree days 17 8  
Since 1 July heating degree days 17 9  
Cooling Degree Days 0 6  
Month to date cooling degree days 194 237  
Year to date cooling degree days 4130 3858  
Growing Degree Days 14 (Base 50)    
Moisture  
Dew Point 53 °F    
Average Humidity 70    
Maximum Humidity 93    
Minimum Humidity 46    
Precipitation  
Precipitation 0.00 in 0.13 in 1.01 in (2007)
Month to date precipitation 1.94 4.61  
Year to date precipitation 59.53 58.81  
Snow  
Snow 0.00 in - - ()
Month to date snowfall 0.0  
Since 1 July snowfall 0.0  
Since 1 September snowfall 0.0  
Snow Depth 0.00 in    
Sea Level Pressure  
Sea Level Pressure 30.22 in    
Wind  
Wind Speed 11 mph (NE)    
Max Wind Speed 18 mph    
Max Gust Speed 23 mph    
Visibility 10 miles    
Events      
T = Trace of Precipitation, MM = Missing Value Source: NWS Daily Summary

Daily Weather History Graph

Daily Weather History Graph

Search for Another Location

Airport or City:

Trip Planner

Search our weather history database for the weather conditions in past years. The results will help you decide how hot, cold, wet, or windy it might be!

Date:

Astronomy

Nov. 29, 2014 Rise Set
Actual Time 6:50 AM EST 5:27 PM EST
Civil Twilight 6:25 AM EST 5:52 PM EST
Nautical Twilight 5:56 AM EST 6:20 PM EST
Astronomical Twilight 5:28 AM EST 6:48 PM EST
Moon 12:43 PM EST (11/29) No Moon Set
Length of Visible Light 11h 26m
Length of Day
10h 36m
First Quarter, 53% of the Moon is Illuminated
Nov 29
First Quarter
Dec 6
Full
Dec 14
Last Quarter
Dec 21
New
Dec 28
First Quarter

Hourly Weather History & Observations

Time (EST) Temp. Dew Point Humidity Pressure Visibility Wind Dir Wind Speed Gust Speed Precip Events Conditions
12:53 AM 54.0 °F 48.9 °F 83% 30.19 in 10.0 mi NNW 10.4 mph - N/A   Partly Cloudy
1:53 AM 53.1 °F 48.9 °F 86% 30.18 in 10.0 mi NW 8.1 mph - N/A   Partly Cloudy
2:53 AM 54.0 °F 50.0 °F 86% 30.18 in 10.0 mi NNW 8.1 mph - N/A   Partly Cloudy
3:53 AM 53.1 °F 50.0 °F 89% 30.17 in 10.0 mi NW 6.9 mph - N/A   Partly Cloudy
4:53 AM 53.1 °F 50.0 °F 89% 30.17 in 10.0 mi NW 5.8 mph - N/A   Partly Cloudy
5:53 AM 54.0 °F 51.1 °F 90% 30.19 in 10.0 mi NNW 5.8 mph - N/A   Scattered Clouds
6:53 AM 55.0 °F 51.1 °F 86% 30.22 in 10.0 mi NNW 8.1 mph - N/A   Scattered Clouds
7:53 AM 57.0 °F 52.0 °F 83% 30.23 in 10.0 mi NNW 9.2 mph - N/A   Scattered Clouds
8:53 AM 60.1 °F 53.1 °F 78% 30.25 in 10.0 mi NNW 5.8 mph - N/A   Scattered Clouds
9:53 AM 72.0 °F 55.0 °F 55% 30.25 in 10.0 mi North 5.8 mph - N/A   Scattered Clouds
10:53 AM 75.0 °F 54.0 °F 48% 30.26 in 10.0 mi ENE 9.2 mph - N/A   Mostly Cloudy
11:53 AM 73.0 °F 53.1 °F 49% 30.25 in 10.0 mi NE 8.1 mph - N/A   Scattered Clouds
12:53 PM 73.9 °F 54.0 °F 50% 30.22 in 10.0 mi East 17.3 mph - N/A   Scattered Clouds
1:53 PM 75.9 °F 54.0 °F 46% 30.19 in 10.0 mi East 13.8 mph - N/A   Scattered Clouds
2:53 PM 73.9 °F 53.1 °F 48% 30.20 in 10.0 mi ENE 15.0 mph - N/A   Mostly Cloudy
3:53 PM 73.0 °F 53.1 °F 49% 30.21 in 10.0 mi ENE 13.8 mph - N/A   Mostly Cloudy
4:53 PM 73.0 °F 53.1 °F 49% 30.21 in 10.0 mi ENE 11.5 mph - N/A   Mostly Cloudy
5:53 PM 72.0 °F 54.0 °F 53% 30.22 in 10.0 mi ENE 15.0 mph - N/A   Mostly Cloudy
6:53 PM 72.0 °F 55.0 °F 55% 30.22 in 10.0 mi ENE 10.4 mph - N/A   Mostly Cloudy
7:53 PM 72.0 °F 55.0 °F 55% 30.23 in 10.0 mi East 16.1 mph - N/A   Mostly Cloudy
8:53 PM 72.0 °F 53.1 °F 51% 30.23 in 10.0 mi East 17.3 mph 21.9 mph N/A   Mostly Cloudy
9:53 PM 71.1 °F 53.1 °F 53% 30.24 in 10.0 mi East 13.8 mph - N/A   Scattered Clouds
10:53 PM 71.1 °F 55.0 °F 57% 30.24 in 10.0 mi East 12.7 mph - N/A   Scattered Clouds
11:53 PM 71.1 °F 54.0 °F 55% 30.24 in 10.0 mi East 11.5 mph - N/A   Partly Cloudy